Fort Campbell, KY

12:41 AM CDT on May 24, 2017 (GMT -0500)
Campbell Army Air Field

Weather History for KHOP - October, 2011

Change the Weather History Date:

Monday, October 3, 2011

  Actual Average Record
Temperature  
Mean Temperature 57 °F -  
Max Temperature 74 °F 74 °F 86 °F (2000)
Min Temperature 40 °F 50 °F 33 °F (2003)
Degree Days  
Heating Degree Days 8    
Growing Degree Days 7 (Base 50)    
Moisture  
Dew Point 41 °F    
Average Humidity 60    
Maximum Humidity 93    
Minimum Humidity 26    
Precipitation  
Precipitation 0.01 in - - ()
Sea Level Pressure  
Sea Level Pressure 30.22 in    
Wind  
Wind Speed 3 mph (West)    
Max Wind Speed 10 mph    
Max Gust Speed -    
Visibility 10 miles    
Events      
Averages and records for this station are not official NWS values.
T = Trace of Precipitation, MM = Missing Value Source: NWS Daily Summary

Daily Weather History Graph

Daily Weather History Graph

Search for Another Location

Airport or City:

Trip Planner

Search our weather history database for the weather conditions in past years. The results will help you decide how hot, cold, wet, or windy it might be!

Date:

Astronomy

Oct. 03, 2011 Rise Set
Actual Time 6:46 AM CDT 6:30 PM CDT
Civil Twilight 6:20 AM CDT 6:56 PM CDT
Nautical Twilight 5:50 AM CDT 7:26 PM CDT
Astronomical Twilight 5:20 AM CDT 7:56 PM CDT
Moon 1:36 PM CDT (10/3) 11:41 PM CDT (10/3)
Length of Visible Light 12h 35m
Length of Day
11h 44m
Waxing Crescent, 45% of the Moon is Illuminated
Oct 3
Waxing Crescent
Oct 3
First Quarter
Oct 11
Full
Oct 19
Last Quarter
Oct 26
New

Hourly Weather History & Observations

Time (CDT) Temp. Windchill Dew Point Humidity Pressure Visibility Wind Dir Wind Speed Gust Speed Precip Events Conditions
1:55 AM 43.3 °F 41.7 °F 38.7 °F 84% 30.21 in 10.0 mi SW 3.5 mph - N/A   Clear
2:55 AM 41.7 °F - 38.5 °F 88% 30.20 in 10.0 mi Calm Calm - N/A   Clear
3:55 AM 44.1 °F - 39.4 °F 84% 30.19 in 10.0 mi Calm Calm - N/A   Clear
4:55 AM 43.2 °F - 40.5 °F 90% 30.20 in 10.0 mi Calm Calm - N/A   Clear
5:55 AM 42.1 °F - 39.6 °F 91% 30.22 in 10.0 mi Calm Calm - N/A   Clear
6:55 AM 40.3 °F - 38.5 °F 93% 30.24 in 10.0 mi Calm Calm - N/A   Clear
7:55 AM 49.5 °F - 43.9 °F 81% 30.25 in 10.0 mi West 3.5 mph - N/A   Clear
8:55 AM 55.8 °F - 44.8 °F 67% 30.27 in 10.0 mi Variable 3.5 mph - N/A   Clear
9:55 AM 62.2 °F - 45.0 °F 53% 30.27 in 10.0 mi West 4.6 mph - N/A   Clear
10:55 AM 67.3 °F - 36.9 °F 33% 30.26 in 10.0 mi Variable 5.8 mph - N/A   Clear
11:55 AM 70.2 °F - 36.0 °F 29% 30.25 in 10.0 mi Variable 3.5 mph - N/A   Clear
12:55 PM 72.1 °F - 37.0 °F 28% 30.24 in 10.0 mi Variable 3.5 mph - N/A   Clear
1:55 PM 73.9 °F - 36.7 °F 26% 30.21 in 10.0 mi West 10.4 mph - N/A   Clear
2:55 PM 74.3 °F - 38.8 °F 28% 30.19 in 10.0 mi Variable 5.8 mph - 0.01 in   Clear
3:55 PM 74.3 °F - 37.4 °F 26% 30.18 in 10.0 mi West 10.4 mph - N/A   Clear
4:55 PM 73.2 °F - 38.3 °F 28% 30.19 in 10.0 mi WNW 6.9 mph - N/A   Clear
5:55 PM 70.2 °F - 39.9 °F 33% 30.19 in 10.0 mi WNW 5.8 mph - N/A   Clear
7:55 PM 62.6 °F - 41.4 °F 46% 30.21 in 10.0 mi West 3.5 mph - N/A   Clear
8:55 PM 55.2 °F - 45.5 °F 70% 30.22 in 10.0 mi Calm Calm - N/A   Clear
9:55 PM 52.3 °F - 45.7 °F 78% 30.22 in 10.0 mi Calm Calm - N/A   Clear
10:55 PM 51.6 °F - 45.7 °F 80% 30.23 in 10.0 mi Calm Calm - N/A   Clear
11:55 PM 51.3 °F - 45.5 °F 81% 30.22 in 10.0 mi Calm Calm - N/A   Clear